Weather History for TJSJ - July, 2015

Change the Weather History Date:

Wednesday, July 1, 2015

  Actual Average Record
Temperature  
Mean Temperature 83 °F 83 °F  
Max Temperature 88 °F 89 °F 94 °F (1995)
Min Temperature 77 °F 78 °F 69 °F (1959)
Degree Days  
Heating Degree Days 0 0  
Month to date heating degree days 0 0  
Since 1 June heating degree days 0 0  
Since 1 July heating degree days 0 0  
Cooling Degree Days 18 18  
Month to date cooling degree days 18 18  
Year to date cooling degree days 2933 2732  
Since 1 June cooling degree days 592 567  
Growing Degree Days 32 (Base 50)    
Moisture  
Dew Point 75 °F    
Average Humidity 79    
Maximum Humidity 97    
Minimum Humidity 61    
Precipitation  
Precipitation 0.15 in 0.15 in 1.54 in (1983)
Month to date precipitation 0.15 0.15  
Year to date precipitation 15.65 23.24  
Sea Level Pressure  
Sea Level Pressure 30.10 in    
Wind  
Wind Speed 12 mph (East)    
Max Wind Speed 20 mph    
Max Gust Speed 24 mph    
Visibility 10 miles    
Events Rain    
T = Trace of Precipitation, MM = Missing Value Source: NWS Daily Summary

Daily Weather History Graph

Daily Weather History Graph

Search for Another Location

Airport or City:

Trip Planner

Search our weather history database for the weather conditions in past years. The results will help you decide how hot, cold, wet, or windy it might be!

Date:

Astronomy

Jul. 01, 2015 Rise Set
Actual Time 5:51 AM AST 7:04 PM AST
Civil Twilight 5:27 AM AST 7:28 PM AST
Nautical Twilight 4:58 AM AST 7:57 PM AST
Astronomical Twilight 4:28 AM AST 8:26 PM AST
Moon 6:43 PM AST (7/1) 5:21 AM AST (7/1)
Length of Visible Light 14h 01m
Length of Day
13h 13m
Full, 100% of the Moon is Illuminated
Jul 1
Full
Jul 1
Full
Jul 8
Last Quarter
Jul 15
New
Jul 24
First Quarter

Hourly Weather History & Observations

Time (AST) Temp. Heat Index Dew Point Humidity Pressure Visibility Wind Dir Wind Speed Gust Speed Precip Events Conditions
12:56 AM 78.1 °F - 75.0 °F 90% 30.12 in 10.0 mi ESE 5.8 mph - N/A   Scattered Clouds
1:56 AM 78.1 °F - 77.0 °F 96% 30.11 in 7.0 mi East 13.8 mph - 0.05 in Rain Light Rain
2:56 AM 78.1 °F - 75.9 °F 93% 30.09 in 10.0 mi East 11.5 mph 23.0 mph 0.00 in   Mostly Cloudy
3:56 AM 77.0 °F - 75.9 °F 96% 30.09 in 7.0 mi Variable 6.9 mph - 0.07 in Rain Rain
4:56 AM 78.1 °F - 77.0 °F 96% 30.09 in 10.0 mi East 11.5 mph - 0.03 in   Mostly Cloudy
5:56 AM 78.1 °F - 77.0 °F 96% 30.11 in 10.0 mi Calm Calm - N/A   Mostly Cloudy
6:56 AM 79.0 °F - 77.0 °F 94% 30.12 in 10.0 mi ESE 4.6 mph - N/A   Scattered Clouds
7:56 AM 81.0 °F 87.3 °F 75.9 °F 85% 30.13 in 10.0 mi East 12.7 mph - N/A   Mostly Cloudy
8:56 AM 82.0 °F 90.2 °F 77.0 °F 85% 30.13 in 10.0 mi East 13.8 mph 23.0 mph 0.00 in   Scattered Clouds
9:56 AM 82.0 °F 90.2 °F 77.0 °F 85% 30.13 in 10.0 mi East 12.7 mph - N/A   Scattered Clouds
10:56 AM 84.0 °F 91.9 °F 75.0 °F 74% 30.12 in 10.0 mi East 17.3 mph - N/A   Scattered Clouds
11:56 AM 86.0 °F 96.0 °F 75.9 °F 72% 30.11 in 9.0 mi ESE 12.7 mph 21.9 mph N/A   Scattered Clouds
12:56 PM 87.1 °F 96.3 °F 75.0 °F 67% 30.10 in 9.0 mi East 15.0 mph - N/A   Scattered Clouds
1:56 PM 87.1 °F 97.3 °F 75.9 °F 69% 30.08 in 9.0 mi ESE 16.1 mph 20.7 mph N/A   Partly Cloudy
2:56 PM 87.1 °F 97.3 °F 75.9 °F 69% 30.06 in 10.0 mi East 17.3 mph - N/A   Scattered Clouds
3:56 PM 86.0 °F 96.9 °F 77.0 °F 74% 30.06 in 10.0 mi ENE 16.1 mph - N/A   Scattered Clouds
4:56 PM 86.0 °F 92.2 °F 72.0 °F 63% 30.05 in 10.0 mi East 19.6 mph 24.2 mph N/A   Scattered Clouds
5:56 PM 84.9 °F 91.4 °F 73.0 °F 67% 30.05 in 10.0 mi East 16.1 mph - N/A   Scattered Clouds
6:56 PM 82.9 °F 89.4 °F 73.9 °F 74% 30.07 in 10.0 mi East 13.8 mph - N/A   Scattered Clouds
7:56 PM 82.0 °F 87.9 °F 73.9 °F 76% 30.08 in 10.0 mi East 10.4 mph - N/A   Scattered Clouds
8:56 PM 81.0 °F 86.7 °F 75.0 °F 82% 30.09 in 10.0 mi East 6.9 mph - N/A   Scattered Clouds
9:56 PM 81.0 °F 86.7 °F 75.0 °F 82% 30.10 in 10.0 mi East 11.5 mph - N/A   Scattered Clouds
10:56 PM 81.0 °F 86.2 °F 73.9 °F 79% 30.11 in 10.0 mi East 13.8 mph - N/A   Scattered Clouds
11:56 PM 81.0 °F 85.8 °F 73.0 °F 77% 30.10 in 10.0 mi ESE 8.1 mph - N/A   Scattered Clouds